Showing default

GEOS 2, 10981

Orbit data source: Space-Track

GEOS 2, 10981 is a payload satellite owned by ESA (ESA) in GEO that was launched on Fri, 14 Jul 1978 UTC via a DELTA 2914 launch vehicle from the Air Force Eastern Test Range (AFETR). Payload-class satellites include a variety of spacecraft equipped with specific instruments for various scientific and technological missions. These include communications satellites like Starlink; space stations such as the ISS; scientific satellites like the Hubble; Earth observation satellites from companies like Planet Labs, Umbra, and HawkEye 360; GPS; miniature CubeSats for education and research; and military/defense satellites.

Loading next visibility...
Identifier
10981, 1978-071A
Orbit
GEO
Country
Flag of ESAESA
Related business
Manufacturer
BAE Filton
Mission
Non-operational spacecraft
Bus & Motor
ESA GEOS, SNIA-BPD
Mass
575 kg wet, 240 kg dry
Launch date (UTC)
1978-07-14 (48 years ago)
Launch vehicle
DELTA 2914
Launch site
Air Force Eastern Test Range (AFETR)
Object type
Payload
Rocket body
Debris
Shape & HBR
Unknown
Radar Cross Section
Large (>1 m²)

Expand to show TLE details & history
Last TLE update: 9 hours ago

TLE from 9 hours ago
0 GEOS 2
1 10981U 78071A   26126.25493131 -.00000257  00000-0  00000-0 0  9992
2 10981   5.6741 286.9249 0005110  14.9860 336.6594  0.99380527173571
Epoch: 2026-05-06T06:07Z
TLE epoch observation values (Epoch: 2026-05-06T06:07:06.065Z)
Latitude
-0.8217°
Longitude
-37.32152°
Altitude
36,018.09 km
Speed
3.067 km/s
True Right ascension
18h 34m 17s
True Declination
0° 49' 15"
Sunlit
Object was in daylight at epoch
Visualization orbit readout
Latitude
Unknown
Longitude
Unknown
Altitude
Unknown
Speed
Unknown
Apparent Right ascension
Unknown
Apparent Declination
Unknown
Sunlit
N/A
Visualization observer readout
Local Sidereal Time
22:49:51
Azimuth
Unknown
Elevation
Unknown
Doppler factor
Unknown
Orbital elements
Apogee altitude
36,061.037 km
Perigee altitude
36,017.686 km
Semi-major axis
42,417.498 km
Eccentricity
0.00051
Inclination
5.6741°
RAAN
286.9249°
Arg. of periapsis
14.986°
True anomaly
336.63619°
Mean anomaly
336.6594°
Eccentric anomaly
336.64779°
Mean motion
0.24844 °/min
Orbital period
1,449.03 mins
BSTAR
0
Loading maneuver chart data...
Computing Atmospheric mass density...
Loading historical data...
Loading historical data...
Loading historical data...
Loading historical data...
Loading historical data...
Loading historical data...
Loading historical data...
Other satellites on launch #71 in the year 1978 (1978-07-14 UTC)

Documentation

Showing up to 5 results
|